Wind_Speed
7 6 6 5 5 6 7 7 6 8 9 9 8 8 10 9 10 10 12 13 12 13 12 11 10 9 9 8 8 8 8 9 10 11 12 12 13 12 12 12 11 11 10 9 9 8 8 7 6
6 6 5 5 8 13 11 9 10 11 10 9 10 10 11 10 10 10 11 12 11 12 12 11 10 9 8 7 7 8 8 9 10 11 11 12 12 13 13 12 12 12 12 11 10 9 8 7 7
6 6 5 6 9 12 12 13 12 13 13 11 12 11 11 11 11 11 11 11 11 11 11 11 10 9 9 8 8 8 8 9 10 10 11 11 12 13 13 13 13 14 13 12 11 10 9 8 8
8 7 5 5 8 9 12 14 12 11 14 13 12 13 12 13 13 13 13 12 12 12 11 10 10 10 9 9 9 9 10 10 11 12 12 12 12 13 14 14 14 15 15 14 13 13 12 11 10
11 9 5 7 9 10 14 16 12 11 12 14 16 16 15 14 15 15 14 14 13 12 11 10 10 10 10 10 11 12 13 14 14 14 14 14 15 15 15 15 16 16 16 16 15 15 14 14 13
13 12 8 2 5 12 17 18 13 12 13 13 15 16 17 16 15 15 15 14 14 12 11 11 11 11 11 12 13 15 16 17 18 18 18 18 18 18 18 18 18 18 18 18 18 17 17 16 16
15 14 11 6 7 11 19 21 16 14 14 13 15 17 16 16 16 15 15 15 14 14 14 13 13 14 14 15 16 18 19 20 21 22 22 22 23 23 23 23 22 22 21 20 20 20 19 19 19
18 16 13 6 5 10 19 20 18 16 17 16 18 20 18 16 17 17 16 16 17 16 17 17 17 17 18 18 19 20 21 22 23 24 25 26 26 27 27 27 27 26 25 24 23 23 22 22 22
20 18 13 5 6 12 20 21 18 16 18 20 20 20 19 18 17 18 18 19 19 20 19 19 19 20 20 21 22 23 23 24 25 26 27 28 29 29 30 30 30 29 29 28 27 26 25 25 25
21 20 15 10 15 18 22 23 19 17 20 21 19 19 20 19 19 19 20 21 21 22 22 22 22 23 23 23 24 25 25 26 28 28 29 30 30 31 31 31 31 32 32 31 30 30 28 28 27
22 21 19 17 20 23 23 21 19 19 24 23 22 22 23 22 23 23 22 23 22 23 24 25 24 25 26 25 26 27 28 28 29 29 30 31 33 33 34 34 33 33 34 34 33 33 32 31 31
23 22 21 21 23 24 23 21 21 23 25 25 25 25 25 25 26 24 23 25 24 25 27 28 28 27 29 29 29 29 31 32 31 32 32 33 34 35 36 37 36 35 35 36 37 36 35 35 34
21 21 21 21 23 24 23 22 23 24 24 25 25 26 27 27 28 28 27 27 27 29 30 31 31 31 32 33 33 33 34 34 35 36 36 36 37 37 37 36 38 38 38 37 37 37 37 36 35
18 19 19 20 21 22 23 22 23 24 24 25 25 26 27 29 30 30 31 31 31 32 33 34 34 34 35 36 36 36 37 38 39 40 40 40 39 38 38 38 38 38 38 37 36 38 38 36 36
14 14 14 17 18 19 20 19 21 22 23 24 24 25 27 28 29 32 32 33 34 35 34 35 36 36 37 38 39 40 41 42 42 42 43 42 41 40 39 38 37 37 37 37 37 37 38 37 37
7 8 10 14 15 15 14 18 22 21 21 23 23 24 25 26 28 30 31 32 33 34 35 36 38 38 39 40 41 42 43 44 44 44 44 43 42 41 39 38 37 37 36 36 35 35 36 37 37
6 11 14 17 15 12 13 19 20 20 21 22 22 22 22 23 24 26 28 30 31 33 34 36 38 39 40 42 44 45 46 46 46 45 45 44 42 41 39 38 38 37 36 36 35 34 35 35 35
13 14 15 17 12 11 14 19 19 21 22 21 21 21 21 22 23 25 26 28 30 32 34 36 38 40 41 43 45 46 46 46 47 46 45 43 42 41 39 39 38 37 37 37 36 36 35 35 35
8 8 9 10 10 13 17 19 18 18 18 18 18 19 20 20 22 24 25 27 30 32 35 37 39 41 43 45 45 46 46 47 47 46 45 42 41 41 41 40 39 39 39 38 37 37 36 35 35
7 10 11 11 14 14 15 18 15 14 14 15 16 17 18 20 21 23 26 28 30 33 35 37 39 40 42 43 44 45 45 46 46 46 45 44 42 42 43 43 42 42 41 40 38 38 35 33 34
9 11 12 13 14 14 15 17 14 11 11 12 14 17 18 20 21 23 25 27 29 31 33 35 36 38 40 42 43 45 46 46 46 46 46 45 44 44 44 45 45 44 43 41 39 37 35 35 34
11 11 11 11 13 17 18 20 17 14 9 11 15 18 20 21 22 24 26 27 29 31 33 35 36 38 40 42 44 45 46 46 46 47 47 47 47 46 45 45 46 45 45 43 41 40 38 37 36
9 8 10 13 17 21 22 22 16 11 7 14 18 20 22 23 24 25 27 28 30 33 35 37 37 38 40 42 44 44 45 46 47 47 47 46 46 45 45 45 45 45 44 44 43 41 40 39 38
8 9 13 16 19 19 16 14 11 17 18 20 22 23 23 24 25 27 28 30 32 34 36 38 39 39 40 41 43 44 45 45 46 46 46 45 44 44 43 43 43 42 43 43 43 42 41 40 39
7 10 15 20 23 17 13 9 12 19 21 23 25 25 25 26 27 29 30 32 34 36 37 38 40 40 40 41 42 43 44 44 43 43 43 42 41 41 41 40 41 41 40 41 41 42 41 41 41
7 9 13 17 21 19 14 9 15 19 21 22 24 24 25 27 28 30 32 34 36 38 39 40 40 40 41 41 42 42 41 41 40 41 41 40 39 39 39 39 40 40 41 41 41 42 42 42 42
7 7 9 9 11 14 18 18 17 19 21 22 23 24 26 28 30 32 34 36 38 39 40 41 41 41 41 41 40 40 39 39 39 39 39 39 40 40 41 42 42 42 43 43 43 43 44 45 44
10 9 9 6 7 7 13 19 20 22 22 23 24 25 27 30 32 34 36 38 40 40 41 41 41 41 41 40 39 38 38 38 39 39 39 40 41 43 44 45 45 45 46 46 47 46 46 47 48
10 10 10 8 7 5 9 21 21 22 23 23 25 27 29 31 33 35 37 39 41 41 42 42 42 41 40 40 39 38 38 39 39 40 41 42 43 44 45 47 48 49 49 49 49 49 49 49 50
9 11 11 10 10 8 9 21 22 22 23 25 27 28 30 32 34 36 39 41 41 42 42 42 41 41 41 40 39 39 39 40 41 42 43 44 45 46 47 48 49 50 51 51 52 52 52 52 52
Wind_Direction
24 25 26 28 12 13 40 38 343 321 320 325 325 317 304 303 302 297 291 292 294 293 293 291 292 294 298 304 310 316 320 321 322 323 323 323 324 327 328 331 336 340 343 347 350 354 354 351 347
5 5 4 357 355 1 2 345 325 324 321 323 320 308 308 314 310 308 302 302 300 297 295 292 291 293 295 300 307 312 315 316 317 318 318 318 319 320 321 323 326 328 330 332 334 335 338 338 334
337 337 347 353 13 352 337 319 320 328 319 321 314 306 306 310 308 310 309 307 305 302 297 295 292 292 294 297 303 307 309 310 312 312 313 313 314 315 316 317 318 319 320 320 320 320 319 319 316
318 322 336 8 18 333 312 306 314 320 315 314 306 303 303 309 309 307 307 306 306 305 300 295 290 291 294 296 301 304 305 306 307 307 306 306 307 308 309 309 311 311 311 310 308 307 305 304 302
307 307 311 16 354 308 300 300 309 306 303 305 308 304 304 308 308 307 305 303 303 301 298 293 292 295 298 302 306 308 308 307 307 306 305 303 303 302 302 301 302 303 303 302 299 298 297 293 292
301 297 293 355 298 293 293 293 303 296 298 298 297 296 300 302 303 305 304 304 302 298 295 293 295 297 300 304 307 307 307 307 307 305 304 302 301 299 298 298 296 296 295 294 292 290 289 287 284
295 291 285 256 252 286 289 291 296 290 285 287 290 291 293 297 297 301 303 303 300 297 295 295 296 299 300 301 303 303 303 304 304 303 302 302 301 299 297 295 294 292 290 287 285 284 282 281 280
289 287 284 272 284 290 279 283 286 288 285 283 282 281 290 302 300 301 301 301 299 299 297 296 297 299 299 299 299 300 300 301 302 301 300 300 299 298 296 294 291 289 287 285 282 279 277 276 276
283 280 276 246 256 258 265 272 279 286 284 281 276 277 283 292 300 300 298 298 299 299 299 296 296 298 299 299 300 300 299 300 301 301 300 298 296 296 294 293 290 287 285 283 281 278 275 273 271
276 273 261 236 238 238 252 264 269 272 271 270 269 282 287 289 293 295 294 295 297 299 298 294 296 298 298 298 300 300 300 300 300 299 299 297 295 293 292 291 289 287 285 283 280 278 275 272 269
271 266 255 239 246 247 250 263 265 261 264 269 275 285 286 286 289 286 288 292 295 297 298 297 298 299 300 299 299 299 298 299 299 299 299 297 294 292 291 289 286 285 283 281 280 279 275 271 268
268 263 256 247 250 254 255 256 259 260 264 271 276 280 281 282 284 285 286 290 293 295 295 295 296 298 299 299 298 298 299 298 297 298 298 297 296 295 293 291 288 286 284 281 278 277 276 273 269
268 265 262 259 259 259 258 255 257 261 267 271 272 273 275 276 277 279 281 285 287 289 290 292 295 296 296 297 297 297 297 298 299 299 299 296 296 295 293 293 291 288 287 282 277 277 274 272 270
265 265 264 263 263 263 262 262 261 264 267 269 269 271 273 274 275 277 280 281 282 285 286 288 290 291 292 293 294 295 296 297 297 297 296 293 293 294 293 293 291 287 286 282 279 277 274 271 272
271 270 268 262 260 261 265 264 261 266 267 268 267 268 270 269 271 275 277 278 280 282 283 284 286 287 289 290 292 293 294 295 295 294 293 292 292 292 293 292 292 289 287 285 283 279 276 272 271
279 275 267 257 251 259 264 259 267 267 271 272 271 269 269 270 272 273 274 274 276 278 280 281 283 285 287 288 289 290 292 292 293 291 290 290 290 291 291 289 289 288 286 287 284 280 276 274 272
283 263 251 237 240 252 264 268 276 278 280 278 276 274 273 272 272 273 273 273 274 277 279 281 283 285 286 287 288 289 290 291 292 291 290 289 289 289 288 287 286 286 285 286 284 280 277 276 273
259 241 238 233 247 260 269 279 280 281 283 283 281 280 278 277 276 275 275 276 276 277 279 281 282 284 285 287 287 288 289 290 290 290 290 288 286 286 286 285 285 284 284 286 282 276 274 275 275
306 291 275 265 273 276 282 286 285 286 288 290 289 286 285 283 281 280 279 279 279 279 280 282 283 284 285 286 287 287 288 288 288 288 287 286 285 285 284 283 283 281 282 284 282 278 275 273 272
265 266 270 274 278 282 282 284 284 289 296 299 299 296 293 290 287 286 284 283 282 282 283 284 285 286 286 286 287 287 287 287 287 287 287 286 285 284 282 281 280 279 279 279 278 278 273 271 268
259 256 267 275 286 286 275 268 263 275 295 306 308 306 303 298 295 292 290 289 288 287 287 288 288 288 289 288 288 288 288 288 288 288 288 287 285 283 282 281 280 279 278 277 276 275 269 267 267
270 254 266 280 283 282 274 269 273 277 286 313 318 315 311 307 304 301 299 297 295 294 293 293 293 293 293 292 292 292 292 291 290 289 288 287 286 284 282 280 279 278 277 275 274 272 270 266 265
300 295 280 272 270 268 268 273 279 303 318 325 325 321 316 313 311 310 307 305 303 302 301 300 299 298 296 296 295 294 293 293 292 290 289 288 287 285 284 282 279 278 276 274 272 270 268 265 262
307 304 294 291 286 285 287 292 319 344 341 335 329 325 322 319 317 316 314 312 310 308 307 306 305 303 301 299 298 297 296 295 294 293 292 291 289 287 285 283 281 277 275 272 270 268 265 263 260
312 313 313 324 333 342 351 334 342 342 339 334 329 326 324 323 322 321 320 318 316 314 313 311 310 309 307 304 302 300 299 297 296 295 294 293 292 291 288 286 283 279 275 271 269 267 264 261 258
323 324 327 333 334 341 342 340 339 335 332 329 326 326 326 326 326 326 325 324 322 320 318 316 314 311 309 307 304 302 300 298 297 296 295 293 291 290 289 288 286 283 278 273 268 266 263 260 257
323 314 314 327 338 340 336 332 332 332 329 329 329 328 329 329 328 328 327 327 325 323 320 318 316 313 311 308 306 303 301 299 297 296 294 293 291 289 288 288 285 283 279 275 270 266 262 259 255
332 329 327 335 335 350 333 316 319 323 325 328 329 329 330 330 330 329 329 328 327 324 322 319 317 315 313 310 306 303 301 299 297 295 294 292 291 289 287 286 285 283 280 276 272 267 262 258 255
323 322 321 323 318 324 321 304 314 318 323 327 328 329 329 330 330 330 330 329 328 326 324 321 319 317 315 312 308 304 302 300 298 296 295 293 291 289 287 285 283 282 279 276 272 268 262 257 254
318 320 323 328 326 333 324 302 311 318 323 326 327 328 328 330 331 331 331 330 329 328 325 323 321 319 317 314 310 307 304 302 300 299 297 295 293 291 289 286 283 280 277 274 270 267 262 258 253
Height
5921 5920 5920 5921 5921 5918 5915 5917 5919 5919 5918 5918 5917 5916 5915 5915 5916 5918 5914 5913 5914 5913 5912 5912 5912 5912 5912 5911 5911 5910 5910 5910 5909 5909 5908 5908 5907 5907 5906 5906 5905 5905 5904 5904 5903 5903 5902 5902 5901
5921 5921 5922 5922 5920 5917 5918 5919 5919 5918 5918 5917 5916 5915 5914 5914 5914 5914 5913 5913 5913 5912 5912 5911 5911 5911 5911 5910 5910 5910 5909 5909 5908 5908 5907 5907 5906 5906 5905 5905 5905 5904 5904 5904 5903 5903 5902 5902 5901
5921 5921 5922 5922 5921 5921 5921 5920 5918 5918 5916 5915 5915 5914 5914 5913 5913 5913 5912 5912 5912 5911 5911 5911 5910 5910 5909 5909 5909 5908 5908 5908 5907 5907 5906 5906 5905 5905 5904 5904 5903 5903 5903 5902 5902 5902 5902 5902 5901
5921 5921 5922 5923 5923 5923 5922 5920 5918 5918 5915 5914 5913 5912 5911 5912 5912 5912 5911 5911 5911 5910 5910 5909 5909 5909 5908 5908 5907 5907 5907 5906 5906 5906 5905 5905 5904 5904 5903 5902 5902 5902 5901 5901 5901 5901 5901 5900 5900
5920 5921 5922 5921 5923 5923 5921 5919 5918 5917 5915 5913 5912 5910 5909 5910 5910 5910 5909 5909 5909 5909 5909 5908 5908 5907 5907 5906 5906 5906 5905 5905 5905 5904 5904 5903 5902 5902 5901 5901 5900 5900 5899 5899 5899 5899 5899 5899 5899
5918 5919 5919 5921 5925 5924 5920 5917 5917 5915 5913 5912 5910 5908 5908 5908 5908 5907 5907 5907 5907 5907 5907 5906 5906 5905 5905 5905 5904 5904 5903 5903 5902 5902 5901 5900 5900 5899 5899 5898 5897 5897 5896 5896 5896 5896 5896 5896 5896
5916 5916 5916 5918 5922 5923 5919 5915 5915 5913 5911 5910 5908 5905 5905 5904 5905 5905 5905 5905 5905 5905 5904 5904 5904 5903 5903 5902 5902 5901 5901 5900 5899 5899 5898 5897 5896 5896 5895 5894 5894 5893 5893 5893 5893 5893 5893 5893 5893
5912 5913 5913 5915 5920 5923 5916 5913 5912 5910 5908 5907 5906 5903 5902 5901 5903 5903 5903 5902 5902 5902 5902 5901 5901 5901 5900 5900 5899 5898 5897 5896 5895 5895 5894 5893 5892 5891 5890 5889 5889 5888 5888 5888 5888 5888 5889 5889 5889
5908 5910 5910 5912 5917 5918 5912 5910 5909 5907 5905 5903 5902 5901 5901 5900 5900 5900 5900 5900 5899 5899 5899 5899 5898 5898 5897 5896 5895 5894 5893 5892 5891 5890 5889 5888 5887 5886 5885 5884 5883 5882 5882 5882 5882 5883 5883 5884 5885
5904 5904 5905 5908 5909 5909 5906 5905 5905 5904 5900 5898 5896 5897 5898 5898 5898 5898 5897 5897 5896 5895 5895 5895 5895 5894 5893 5892 5891 5890 5889 5888 5886 5885 5884 5882 5881 5880 5879 5878 5877 5876 5876 5876 5876 5876 5877 5878 5879
5898 5899 5899 5900 5901 5901 5901 5900 5900 5899 5896 5894 5893 5895 5895 5895 5895 5894 5893 5893 5893 5892 5892 5891 5891 5890 5889 5888 5887 5886 5885 5883 5882 5880 5879 5877 5876 5874 5873 5871 5871 5870 5868 5868 5868 5869 5870 5871 5872
5892 5893 5893 5894 5894 5894 5895 5895 5894 5893 5892 5892 5892 5892 5891 5891 5890 5889 5887 5888 5889 5889 5888 5887 5886 5886 5884 5883 5882 5881 5879 5877 5876 5875 5873 5871 5869 5868 5866 5864 5863 5863 5861 5859 5859 5861 5862 5863 5864
5886 5887 5888 5888 5889 5889 5889 5889 5889 5888 5888 5887 5888 5887 5887 5886 5885 5884 5882 5883 5884 5884 5883 5882 5881 5881 5879 5877 5876 5875 5873 5871 5869 5868 5866 5864 5862 5861 5860 5857 5855 5854 5853 5851 5852 5852 5853 5854 5855
5882 5883 5883 5884 5884 5884 5884 5884 5884 5883 5883 5883 5883 5882 5882 5881 5880 5880 5879 5878 5878 5878 5878 5877 5876 5875 5873 5872 5869 5868 5867 5865 5863 5861 5859 5857 5855 5854 5852 5850 5848 5846 5844 5843 5843 5844 5843 5844 5846
5877 5879 5879 5879 5879 5879 5879 5879 5878 5878 5878 5878 5878 5877 5877 5875 5875 5874 5874 5874 5874 5873 5872 5871 5870 5869 5868 5866 5864 5862 5860 5858 5856 5853 5851 5849 5847 5846 5844 5843 5841 5839 5837 5836 5835 5835 5835 5837 5838
5875 5875 5876 5876 5876 5875 5876 5874 5873 5872 5873 5873 5872 5872 5872 5871 5870 5870 5869 5869 5868 5867 5866 5865 5864 5862 5861 5859 5857 5854 5852 5850 5848 5845 5843 5840 5839 5838 5836 5835 5834 5832 5831 5829 5828 5828 5828 5828 5829
5872 5873 5873 5872 5870 5871 5872 5870 5869 5867 5868 5867 5867 5866 5866 5866 5865 5865 5864 5863 5862 5862 5860 5859 5857 5856 5854 5852 5849 5846 5844 5841 5839 5836 5834 5832 5830 5829 5828 5827 5825 5824 5823 5822 5820 5820 5819 5820 5820
5867 5867 5868 5866 5867 5869 5867 5866 5866 5865 5864 5863 5862 5861 5861 5861 5860 5859 5858 5858 5857 5856 5854 5853 5851 5848 5846 5844 5841 5838 5835 5833 5830 5827 5825 5823 5821 5820 5819 5818 5817 5816 5815 5814 5812 5812 5811 5812 5813
5866 5865 5865 5865 5865 5866 5864 5864 5863 5861 5860 5859 5858 5857 5856 5856 5855 5854 5853 5852 5851 5850 5848 5846 5844 5841 5838 5835 5832 5829 5826 5823 5820 5818 5816 5815 5813 5811 5810 5809 5808 5807 5807 5806 5805 5804 5803 5804 5805
5867 5866 5864 5864 5864 5864 5863 5861 5859 5858 5856 5855 5854 5853 5852 5852 5851 5849 5848 5847 5845 5843 5841 5838 5836 5833 5829 5826 5823 5820 5817 5813 5810 5808 5806 5805 5804 5802 5800 5799 5799 5798 5797 5797 5797 5796 5795 5796 5797
5864 5864 5864 5864 5863 5862 5860 5856 5852 5853 5853 5852 5851 5850 5849 5847 5846 5844 5842 5840 5838 5836 5833 5831 5828 5825 5821 5817 5813 5810 5806 5803 5800 5797 5795 5793 5793 5791 5790 5788 5788 5787 5787 5787 5787 5787 5787 5788 5790
5863 5863 5863 5861 5860 5857 5854 5849 5846 5845 5848 5848 5847 5847 5845 5843 5841 5839 5837 5834 5831 5828 5825 5822 5819 5816 5812 5807 5803 5799 5795 5792 5789 5786 5784 5782 5780 5779 5778 5777 5776 5776 5776 5776 5777 5778 5778 5780 5782
5862 5862 5861 5859 5856 5851 5847 5844 5842 5839 5840 5845 5845 5843 5841 5839 5836 5834 5831 5827 5824 5820 5817 5813 5810 5806 5802 5797 5792 5788 5784 5780 5777 5774 5772 5770 5768 5766 5765 5764 5764 5764 5764 5764 5765 5767 5768 5770 5772
5862 5861 5859 5857 5853 5849 5844 5843 5840 5841 5840 5841 5841 5840 5838 5835 5832 5828 5825 5821 5817 5813 5808 5803 5799 5795 5791 5786 5782 5777 5773 5769 5765 5762 5759 5757 5755 5753 5752 5751 5751 5751 5752 5752 5753 5755 5757 5759 5762
5861 5861 5858 5854 5848 5846 5844 5842 5843 5843 5841 5840 5839 5837 5834 5831 5827 5823 5819 5815 5810 5805 5800 5795 5790 5785 5780 5776 5771 5766 5762 5758 5754 5751 5748 5745 5743 5741 5740 5739 5738 5738 5739 5740 5741 5743 5745 5748 5751
5861 5860 5859 5856 5852 5847 5844 5841 5844 5844 5842 5840 5838 5835 5831 5827 5823 5818 5813 5809 5803 5797 5792 5786 5781 5776 5771 5766 5761 5756 5751 5747 5744 5741 5738 5735 5733 5731 5729 5727 5726 5726 5726 5727 5729 5731 5733 5736 5738
5860 5859 5859 5857 5855 5852 5847 5845 5844 5843 5841 5839 5836 5832 5828 5824 5819 5814 5808 5803 5797 5791 5784 5778 5772 5767 5762 5756 5751 5746 5742 5738 5734 5731 5728 5725 5722 5720 5718 5716 5715 5714 5713 5713 5715 5718 5720 5722 5726
5859 5858 5857 5855 5854 5854 5852 5846 5845 5842 5840 5837 5833 5830 5825 5820 5815 5809 5803 5797 5791 5784 5777 5770 5764 5758 5752 5747 5742 5737 5733 5728 5724 5721 5718 5714 5711 5708 5706 5703 5701 5700 5699 5699 5700 5703 5706 5708 5712
5859 5857 5855 5854 5853 5852 5852 5847 5844 5841 5838 5834 5831 5826 5821 5816 5811 5805 5798 5791 5784 5777 5770 5763 5756 5749 5743 5738 5732 5727 5723 5718 5714 5710 5706 5703 5699 5696 5693 5690 5687 5685 5684 5683 5684 5686 5689 5693 5696
5858 5856 5854 5853 5852 5851 5850 5847 5842 5838 5835 5831 5827 5822 5817 5812 5806 5799 5792 5785 5777 5770 5762 5755 5748 5741 5735 5728 5722 5717 5712 5707 5703 5698 5694 5690 5686 5682 5678 5675 5672 5670 5668 5667 5667 5668 5671 5675 5679